QPF
0.00 0.00 0.00 0.00 0.00 0.00 0.00 0.00 0.00 0.00 0.00 0.00 0.00 0.00 0.00 0.00 0.00 0.00 0.00 0.00 0.00 0.00 0.00 0.00 0.00 0.02 0.02 0.02 0.04 0.12 0.27 0.61 0.43 0.04 0.01 0.00 0.00 0.00 0.00 0.00 0.00 0.00 0.00 0.00
0.00 0.00 0.00 0.00 0.00 0.00 0.00 0.00 0.00 0.00 0.00 0.00 0.00 0.00 0.00 0.00 0.00 0.00 0.00 0.00 0.00 0.00 0.00 0.00 0.00 0.01 0.03 0.03 0.03 0.09 0.11 0.13 0.24 0.05 0.01 0.00 0.00 0.00 0.00 0.00 0.00 0.00 0.00 0.00
0.00 0.00 0.00 0.00 0.00 0.00 0.00 0.00 0.00 0.00 0.00 0.00 0.00 0.00 0.00 0.00 0.00 0.00 0.00 0.00 0.00 0.00 0.00 0.00 0.00 0.00 0.01 0.02 0.02 0.02 0.06 0.04 0.19 0.16 0.04 0.01 0.00 0.00 0.00 0.00 0.00 0.00 0.00 0.00
0.00 0.00 0.00 0.00 0.00 0.00 0.00 0.00 0.00 0.00 0.00 0.00 0.00 0.00 0.00 0.00 0.00 0.00 0.00 0.00 0.00 0.00 0.00 0.00 0.00 0.00 0.01 0.03 0.03 0.03 0.02 0.03 0.20 0.33 0.19 0.02 0.00 0.00 0.00 0.00 0.00 0.00 0.00 0.00
0.00 0.00 0.00 0.00 0.00 0.00 0.00 0.00 0.00 0.00 0.00 0.00 0.00 0.00 0.00 0.00 0.00 0.00 0.00 0.00 0.00 0.00 0.00 0.00 0.00 0.00 0.00 0.00 0.05 0.06 0.02 0.01 0.08 0.29 0.15 0.07 0.00 0.00 0.00 0.00 0.00 0.00 0.00 0.00
0.00 0.00 0.00 0.00 0.00 0.00 0.00 0.00 0.00 0.00 0.00 0.00 0.00 0.00 0.00 0.00 0.00 0.00 0.00 0.00 0.00 0.00 0.00 0.00 0.00 0.00 0.00 0.01 0.02 0.07 0.04 0.03 0.02 0.07 0.08 0.03 0.01 0.00 0.00 0.00 0.00 0.00 0.00 0.00
0.00 0.00 0.00 0.00 0.00 0.00 0.00 0.00 0.00 0.00 0.00 0.00 0.00 0.00 0.00 0.00 0.00 0.00 0.00 0.00 0.00 0.00 0.00 0.00 0.00 0.00 0.00 0.00 0.01 0.01 0.04 0.05 0.04 0.04 0.04 0.03 0.02 0.00 0.00 0.00 0.00 0.00 0.00 0.00
0.00 0.00 0.00 0.00 0.00 0.00 0.00 0.00 0.00 0.00 0.00 0.00 0.00 0.00 0.00 0.00 0.00 0.00 0.00 0.00 0.00 0.00 0.00 0.00 0.00 0.00 0.00 0.00 0.00 0.00 0.01 0.03 0.03 0.03 0.07 0.05 0.03 0.02 0.00 0.00 0.00 0.00 0.00 0.00
0.00 0.00 0.00 0.00 0.00 0.00 0.00 0.00 0.00 0.00 0.00 0.00 0.00 0.00 0.00 0.00 0.00 0.00 0.00 0.00 0.00 0.00 0.00 0.00 0.00 0.00 0.00 0.00 0.00 0.00 0.02 0.02 0.03 0.02 0.02 0.03 0.05 0.03 0.01 0.01 0.01 0.00 0.00 0.00
0.00 0.00 0.00 0.00 0.00 0.00 0.00 0.00 0.00 0.00 0.00 0.00 0.00 0.00 0.00 0.00 0.00 0.00 0.00 0.00 0.00 0.00 0.00 0.00 0.00 0.00 0.00 0.00 0.00 0.00 0.02 0.04 0.06 0.05 0.01 0.00 0.00 0.04 0.03 0.02 0.02 0.02 0.01 0.00
0.00 0.00 0.00 0.00 0.00 0.00 0.00 0.00 0.00 0.00 0.00 0.00 0.00 0.00 0.00 0.00 0.00 0.00 0.00 0.00 0.00 0.00 0.00 0.00 0.00 0.00 0.00 0.00 0.00 0.00 0.00 0.01 0.03 0.04 0.02 0.00 0.00 0.00 0.01 0.02 0.02 0.02 0.03 0.01
0.00 0.03 0.01 0.00 0.00 0.00 0.00 0.00 0.00 0.00 0.00 0.00 0.00 0.00 0.00 0.00 0.00 0.00 0.00 0.00 0.00 0.00 0.00 0.00 0.00 0.00 0.00 0.00 0.00 0.00 0.00 0.00 0.01 0.03 0.03 0.01 0.01 0.00 0.01 0.01 0.02 0.02 0.03 0.05
0.00 0.04 0.04 0.00 0.00 0.00 0.02 0.01 0.02 0.01 0.01 0.01 0.00 0.00 0.00 0.00 0.00 0.00 0.00 0.00 0.00 0.00 0.00 0.00 0.00 0.00 0.00 0.00 0.00 0.00 0.00 0.00 0.01 0.02 0.02 0.02 0.01 0.01 0.01 0.01 0.02 0.04 0.04 0.06
0.00 0.01 0.02 0.01 0.00 0.01 0.08 0.04 0.03 0.06 0.06 0.01 0.00 0.00 0.00 0.00 0.00 0.00 0.00 0.00 0.00 0.00 0.00 0.00 0.00 0.00 0.00 0.00 0.00 0.00 0.00 0.00 0.00 0.01 0.02 0.01 0.01 0.02 0.02 0.03 0.07 0.06 0.08 0.07
0.01 0.01 0.00 0.00 0.00 0.00 0.02 0.01 0.00 0.06 0.07 0.06 0.01 0.00 0.00 0.00 0.00 0.00 0.00 0.00 0.00 0.00 0.00 0.00 0.00 0.00 0.00 0.00 0.00 0.00 0.00 0.00 0.00 0.00 0.01 0.01 0.01 0.01 0.02 0.01 0.03 0.08 0.11 0.11
0.01 0.02 0.00 0.00 0.00 0.00 0.00 0.00 0.00 0.00 0.01 0.03 0.02 0.01 0.00 0.00 0.00 0.00 0.00 0.00 0.00 0.00 0.00 0.00 0.00 0.00 0.00 0.00 0.00 0.00 0.00 0.00 0.00 0.01 0.00 0.00 0.00 0.00 0.00 0.00 0.00 0.02 0.05 0.07
0.01 0.02 0.02 0.01 0.00 0.00 0.00 0.00 0.00 0.00 0.00 0.00 0.01 0.00 0.00 0.00 0.00 0.00 0.00 0.00 0.00 0.00 0.00 0.00 0.00 0.00 0.00 0.00 0.00 0.00 0.00 0.00 0.00 0.01 0.01 0.01 0.01 0.01 0.00 0.01 0.01 0.00 0.01 0.01
0.00 0.01 0.03 0.04 0.02 0.04 0.00 0.00 0.00 0.00 0.00 0.00 0.00 0.00 0.00 0.00 0.00 0.00 0.00 0.00 0.00 0.00 0.00 0.00 0.00 0.00 0.00 0.00 0.00 0.00 0.00 0.00 0.00 0.00 0.00 0.00 0.01 0.02 0.01 0.01 0.01 0.01 0.01 0.01
0.02 0.06 0.13 0.06 0.03 0.01 0.00 0.00 0.00 0.00 0.00 0.00 0.00 0.00 0.00 0.00 0.00 0.00 0.00 0.00 0.00 0.00 0.00 0.00 0.00 0.00 0.00 0.00 0.00 0.00 0.00 0.00 0.00 0.00 0.00 0.00 0.00 0.02 0.02 0.02 0.01 0.01 0.01 0.01
0.03 0.07 0.11 0.04 0.05 0.01 0.00 0.00 0.00 0.00 0.00 0.00 0.00 0.00 0.00 0.00 0.00 0.00 0.00 0.00 0.00 0.00 0.00 0.00 0.00 0.00 0.00 0.00 0.00 0.00 0.00 0.00 0.00 0.00 0.00 0.00 0.00 0.00 0.01 0.03 0.04 0.03 0.02 0.02
0.01 0.01 0.04 0.04 0.07 0.02 0.00 0.01 0.00 0.04 0.02 0.00 0.00 0.00 0.00 0.00 0.00 0.00 0.00 0.00 0.00 0.00 0.00 0.00 0.00 0.00 0.00 0.00 0.00 0.00 0.00 0.00 0.00 0.00 0.00 0.00 0.00 0.00 0.00 0.00 0.01 0.02 0.02 0.02
0.04 0.02 0.00 0.01 0.01 0.01 0.01 0.04 0.04 0.02 0.01 0.00 0.00 0.00 0.00 0.00 0.00 0.00 0.00 0.00 0.00 0.00 0.00 0.00 0.00 0.00 0.00 0.00 0.00 0.00 0.00 0.00 0.00 0.00 0.00 0.00 0.00 0.00 0.00 0.00 0.00 0.00 0.00 0.00
0.01 0.01 0.03 0.02 0.01 0.01 0.02 0.07 0.07 0.00 0.01 0.00 0.00 0.00 0.00 0.00 0.00 0.00 0.00 0.00 0.00 0.00 0.00 0.00 0.00 0.00 0.00 0.00 0.00 0.00 0.00 0.00 0.00 0.00 0.00 0.00 0.00 0.00 0.00 0.00 0.00 0.00 0.00 0.00
0.00 0.00 0.04 0.06 0.02 0.09 0.17 0.22 0.09 0.01 0.01 0.02 0.01 0.00 0.00 0.00 0.00 0.00 0.00 0.00 0.00 0.00 0.00 0.00 0.00 0.00 0.00 0.00 0.00 0.00 0.00 0.00 0.00 0.00 0.00 0.00 0.00 0.00 0.00 0.00 0.00 0.00 0.00 0.00
0.03 0.02 0.04 0.05 0.07 0.09 0.09 0.25 0.14 0.05 0.06 0.19 0.07 0.00 0.00 0.00 0.00 0.00 0.00 0.00 0.00 0.00 0.00 0.00 0.00 0.00 0.00 0.00 0.00 0.00 0.00 0.00 0.00 0.00 0.00 0.00 0.00 0.00 0.00 0.00 0.00 0.00 0.00 0.00
0.10 0.13 0.13 0.08 0.16 0.24 0.22 0.28 0.23 0.12 0.21 0.29 0.11 0.06 0.02 0.00 0.00 0.00 0.00 0.00 0.00 0.00 0.00 0.00 0.00 0.00 0.00 0.00 0.00 0.00 0.00 0.00 0.00 0.00 0.00 0.00 0.00 0.00 0.00 0.00 0.00 0.00 0.00 0.00
MSLP
1011.16 1010.90 1009.46 1008.77 1008.47 1007.95 1007.30 1006.88 1005.81 1005.07 1004.98 1005.13 1004.10 1002.57 1001.39 1001.28 1000.83 1000.51 1000.80 1001.40 1001.63 1001.95 1002.65 1003.25 1004.02 1005.32 1006.32 1007.02 1007.92 1006.96 1008.05 1009.59 1010.06 1010.66 1010.73 1011.38 1011.72 1012.34 1012.94 1013.52 1013.83 1014.36 1014.89 1015.52
1010.30 1009.50 1009.06 1008.59 1008.00 1007.89 1007.60 1007.01 1005.87 1005.22 1005.66 1005.69 1004.05 1001.93 1000.78 999.89 999.88 1000.14 999.81 1000.28 1001.12 1001.63 1002.08 1003.13 1003.73 1005.11 1005.76 1006.53 1007.10 1007.41 1009.02 1008.86 1009.98 1011.00 1010.86 1011.17 1011.58 1012.22 1012.86 1013.56 1013.98 1014.34 1014.68 1015.34
1009.09 1008.26 1008.61 1008.23 1007.83 1008.00 1007.43 1007.05 1006.30 1006.02 1005.70 1005.34 1004.31 1001.36 999.14 999.39 999.96 1000.11 999.81 999.69 1000.25 1000.69 1001.14 1001.90 1002.92 1003.96 1005.13 1005.95 1006.46 1007.25 1007.70 1007.14 1008.96 1010.49 1011.43 1011.36 1011.66 1012.37 1012.96 1013.52 1013.94 1014.26 1014.47 1015.03
1008.48 1008.03 1007.95 1008.19 1007.87 1007.75 1007.31 1006.89 1006.87 1006.88 1006.73 1005.66 1005.14 1001.91 1000.23 998.93 999.35 999.74 999.76 999.72 999.69 1000.06 1000.59 1001.07 1002.28 1003.44 1004.55 1005.50 1006.16 1006.76 1006.79 1007.17 1008.05 1009.52 1010.48 1010.65 1011.18 1011.59 1012.12 1012.81 1013.48 1014.02 1014.42 1014.89
1007.69 1007.55 1007.58 1007.50 1007.19 1007.58 1007.49 1007.70 1007.63 1007.44 1007.20 1006.50 1005.29 1003.86 999.88 999.01 998.82 999.54 999.75 999.73 999.53 999.55 999.83 1000.48 1001.14 1002.55 1003.92 1004.72 1005.42 1005.81 1006.24 1006.94 1008.34 1009.24 1009.16 1010.08 1011.22 1011.58 1011.94 1012.57 1013.16 1013.80 1014.22 1014.54
1008.05 1008.04 1007.82 1007.19 1007.18 1007.61 1007.99 1008.15 1008.02 1007.86 1007.86 1006.34 1004.24 1003.31 999.90 998.61 998.59 999.39 999.51 999.93 999.98 999.87 1000.03 1000.20 1000.58 1001.69 1003.33 1004.18 1004.81 1005.68 1006.33 1007.25 1008.74 1009.32 1009.35 1009.03 1009.99 1010.85 1011.37 1012.03 1012.64 1013.11 1013.61 1014.12
1007.65 1007.14 1007.24 1007.57 1007.65 1007.90 1008.10 1008.08 1007.72 1007.41 1007.56 1005.47 1004.58 1003.10 999.89 998.87 998.97 999.33 999.63 1000.00 1000.12 1000.08 1000.07 1000.42 1000.64 1001.10 1002.55 1003.89 1004.82 1005.49 1006.24 1007.25 1008.21 1009.01 1009.58 1010.04 1009.32 1009.54 1010.46 1011.17 1011.77 1012.45 1013.04 1013.48
1008.01 1006.53 1006.30 1006.50 1006.55 1006.19 1006.73 1006.93 1006.38 1005.63 1005.20 1004.34 1004.70 1002.03 999.17 998.80 998.97 999.48 999.95 1000.25 1000.32 1000.35 1000.33 1000.46 1000.79 1001.17 1001.94 1003.23 1004.28 1005.15 1005.84 1006.94 1007.86 1008.46 1008.76 1009.35 1009.75 1009.73 1009.43 1010.33 1011.04 1011.64 1012.24 1012.72
1008.63 1006.57 1006.10 1006.02 1005.99 1006.30 1005.86 1006.12 1006.12 1005.98 1005.43 1004.89 1002.04 1000.39 999.02 998.22 998.59 999.08 999.68 1000.26 1000.43 1000.68 1000.94 1001.09 1001.11 1001.32 1001.51 1002.73 1003.86 1004.56 1005.33 1005.63 1006.56 1007.47 1008.26 1008.61 1009.16 1009.38 1009.31 1009.85 1010.57 1011.05 1011.82 1012.45
1011.44 1008.94 1007.07 1006.34 1006.77 1006.38 1005.94 1005.87 1006.47 1006.33 1004.87 1003.24 1000.85 999.57 998.45 998.06 998.09 998.70 999.46 1000.07 1000.69 1000.90 1001.13 1001.43 1001.44 1001.42 1001.62 1001.97 1003.42 1004.40 1004.73 1005.21 1005.18 1006.14 1007.10 1007.64 1007.98 1008.82 1009.02 1009.60 1010.04 1010.76 1011.36 1011.99
1013.85 1011.79 1008.46 1007.89 1006.79 1006.12 1006.74 1006.04 1005.47 1005.00 1004.29 1002.52 1000.84 999.08 998.33 998.28 998.19 998.58 999.22 999.85 1000.43 1000.82 1001.07 1001.19 1001.45 1001.85 1001.96 1001.92 1002.02 1003.26 1003.95 1004.58 1005.07 1005.10 1006.26 1007.17 1007.30 1008.18 1008.81 1009.32 1009.96 1010.38 1010.84 1011.47
1015.80 1014.64 1011.19 1008.46 1006.94 1006.57 1006.28 1006.18 1005.98 1005.19 1003.93 1003.08 1002.02 999.69 999.14 998.76 998.82 998.81 999.38 999.87 1000.45 1000.78 1000.95 1001.18 1001.32 1001.39 1001.50 1001.85 1002.05 1002.58 1003.31 1003.62 1004.27 1004.96 1005.28 1006.17 1007.23 1007.88 1008.36 1008.80 1009.17 1009.81 1010.33 1010.79
1016.73 1015.59 1013.48 1009.93 1008.77 1007.78 1007.97 1007.66 1007.16 1006.20 1005.01 1003.87 1002.25 999.91 999.21 999.47 999.63 999.70 999.64 1000.07 1000.66 1000.71 1000.76 1000.88 1001.08 1001.21 1001.22 1001.18 1001.23 1001.25 1001.61 1002.34 1003.56 1004.54 1005.21 1005.54 1006.98 1007.70 1008.24 1008.46 1008.94 1009.47 1010.09 1010.44
1017.28 1016.66 1015.87 1013.97 1011.89 1011.42 1011.36 1010.65 1010.42 1010.21 1008.12 1005.43 1003.07 1000.83 999.85 999.34 999.54 999.63 999.89 1000.11 1000.55 1000.69 1000.85 1001.04 1001.05 1001.20 1001.34 1001.36 1001.41 1001.47 1001.71 1002.52 1003.23 1003.78 1004.78 1005.26 1005.75 1006.77 1007.53 1008.17 1008.53 1009.00 1009.21 1009.74
1016.87 1016.59 1015.97 1014.96 1014.34 1013.30 1012.06 1011.68 1010.63 1010.90 1010.08 1008.79 1005.08 1002.72 1000.75 999.73 999.27 999.31 999.62 1000.09 1000.39 1000.60 1000.76 1001.08 1001.40 1001.61 1001.83 1001.98 1001.97 1002.00 1002.06 1002.38 1003.07 1003.83 1004.46 1004.96 1005.28 1005.81 1006.91 1007.59 1007.68 1007.97 1008.61 1009.01
1016.65 1016.21 1016.10 1015.14 1014.56 1013.77 1012.15 1011.35 1010.78 1009.53 1009.01 1008.76 1006.79 1004.45 1002.14 999.58 998.78 998.87 999.57 1000.20 1000.24 1000.44 1000.75 1001.17 1001.63 1001.85 1002.13 1002.41 1002.47 1002.43 1002.37 1002.42 1003.00 1003.65 1004.23 1004.84 1005.06 1005.45 1006.04 1006.82 1007.12 1007.47 1007.94 1008.37
1016.02 1016.06 1015.80 1014.34 1013.67 1013.38 1011.62 1010.40 1009.07 1008.19 1007.63 1007.70 1005.90 1004.45 1003.13 1000.60 999.95 999.50 999.59 999.99 1000.06 1000.41 1000.90 1001.53 1001.94 1002.09 1002.44 1002.83 1003.09 1003.06 1002.90 1003.03 1003.22 1003.66 1003.90 1004.28 1004.66 1004.89 1005.43 1006.00 1006.38 1007.11 1007.50 1008.00
1015.04 1015.26 1015.07 1013.96 1013.44 1011.69 1009.67 1009.04 1008.21 1006.99 1005.30 1005.03 1004.38 1003.36 1002.65 1001.69 1000.18 999.39 999.39 999.68 999.93 1000.38 1000.75 1001.69 1002.19 1002.67 1002.94 1003.19 1003.37 1003.57 1003.64 1003.55 1003.97 1004.11 1004.05 1004.30 1004.72 1004.76 1005.21 1005.73 1006.09 1006.54 1006.93 1007.35
1014.08 1014.82 1014.37 1013.80 1012.44 1010.28 1008.46 1008.18 1007.42 1006.46 1004.88 1004.04 1003.04 1002.41 1001.39 1000.77 1000.28 999.31 999.61 999.96 999.93 1000.60 1001.98 1002.67 1003.16 1003.57 1003.65 1003.77 1003.77 1003.92 1004.10 1004.30 1004.41 1004.67 1004.99 1005.14 1005.20 1004.86 1005.11 1005.45 1005.77 1006.28 1006.70 1006.98
1014.82 1014.98 1014.76 1013.75 1012.27 1010.03 1008.32 1008.29 1007.75 1005.65 1003.71 1003.80 1002.31 1001.60 1001.32 1000.84 999.23 998.85 999.22 1000.02 1001.33 1002.36 1003.02 1003.37 1003.78 1004.12 1004.32 1004.37 1004.23 1004.42 1004.77 1005.07 1005.22 1005.49 1005.60 1005.79 1005.71 1005.55 1005.68 1005.89 1006.23 1006.28 1006.48 1006.97
1015.21 1014.87 1014.70 1013.86 1012.50 1010.58 1010.19 1010.28 1008.41 1006.60 1005.84 1005.13 1002.51 1001.04 1000.51 999.56 999.24 1000.10 1001.26 1002.04 1002.94 1003.71 1004.26 1004.23 1004.56 1005.02 1005.25 1005.14 1005.08 1005.25 1005.68 1006.05 1006.33 1006.26 1006.32 1006.24 1006.38 1006.44 1006.70 1006.72 1006.75 1006.72 1006.93 1007.15
1018.07 1018.10 1016.56 1015.70 1014.31 1011.56 1010.78 1010.41 1010.78 1008.02 1006.09 1006.07 1004.89 1002.94 1001.19 999.38 1000.38 1001.76 1002.54 1003.49 1004.41 1004.95 1004.99 1005.05 1005.64 1006.26 1006.38 1005.96 1005.69 1006.02 1006.45 1006.94 1006.87 1006.81 1006.98 1006.97 1006.97 1007.06 1007.10 1007.18 1007.30 1007.48 1007.67 1007.95
1020.33 1021.27 1020.51 1019.79 1016.86 1015.31 1014.48 1012.87 1010.40 1008.85 1006.76 1005.04 1004.74 1002.80 1000.58 1000.06 1001.39 1002.62 1003.71 1005.04 1005.56 1005.93 1005.77 1006.22 1006.68 1007.01 1007.04 1006.96 1006.77 1006.88 1007.33 1007.46 1007.43 1007.57 1007.72 1007.68 1007.55 1007.52 1007.20 1007.29 1007.53 1007.55 1008.00 1008.34
1022.37 1022.14 1021.38 1020.45 1017.58 1016.54 1014.50 1011.55 1007.09 1004.14 1004.51 1004.12 1003.43 1001.78 1001.64 1002.35 1003.19 1004.18 1005.34 1006.00 1007.06 1006.91 1007.16 1007.67 1007.95 1008.21 1008.32 1008.45 1008.42 1008.34 1008.18 1008.15 1008.15 1008.35 1008.64 1008.88 1008.87 1008.75 1008.52 1008.42 1008.30 1008.45 1008.81 1008.97
1024.30 1023.38 1022.21 1020.51 1018.76 1016.54 1013.87 1011.30 1007.86 1005.34 1004.55 1004.28 1003.65 1003.70 1004.03 1004.38 1005.21 1006.16 1007.14 1008.16 1008.43 1008.83 1009.19 1009.33 1009.54 1009.69 1009.78 1009.89 1009.86 1009.75 1009.35 1009.01 1009.05 1009.32 1009.55 1009.70 1009.76 1009.79 1009.79 1009.95 1009.90 1009.70 1010.06 1009.91
1025.12 1024.48 1023.30 1021.77 1020.82 1019.36 1017.27 1014.59 1010.99 1008.45 1007.36 1006.14 1005.72 1006.07 1006.85 1006.83 1007.56 1008.85 1009.70 1010.18 1010.52 1010.87 1011.13 1011.24 1011.37 1011.30 1011.33 1011.25 1011.15 1011.10 1010.93 1010.44 1010.27 1010.38 1010.60 1010.64 1010.47 1010.49 1010.22 1010.44 1010.76 1010.84 1010.80 1010.69
Thickness
5584 5580 5592 5602 5603 5608 5609 5605 5610 5625 5627 5616 5623 5637 5644 5646 5647 5645 5637 5627 5624 5621 5619 5624 5625 5621 5618 5620 5620 5640 5636 5625 5630 5634 5640 5645 5649 5653 5655 5656 5660 5663 5664 5664
5580 5579 5590 5599 5603 5598 5595 5595 5606 5620 5611 5604 5618 5634 5642 5654 5651 5644 5646 5637 5624 5621 5621 5623 5629 5624 5627 5625 5629 5634 5620 5626 5621 5622 5635 5641 5645 5647 5649 5650 5652 5656 5660 5660
5579 5592 5587 5588 5591 5583 5589 5589 5598 5599 5608 5609 5611 5636 5661 5654 5643 5641 5643 5645 5634 5630 5631 5633 5635 5635 5627 5626 5630 5629 5631 5641 5632 5623 5626 5631 5636 5637 5640 5643 5646 5650 5654 5656
5579 5588 5584 5577 5578 5583 5578 5596 5591 5586 5582 5587 5603 5604 5635 5654 5642 5638 5640 5639 5639 5635 5636 5639 5635 5633 5629 5627 5630 5630 5637 5640 5634 5627 5626 5633 5636 5639 5643 5643 5643 5645 5648 5650
5573 5576 5573 5573 5579 5578 5573 5575 5575 5576 5572 5576 5590 5584 5635 5650 5642 5632 5636 5637 5639 5642 5640 5636 5638 5632 5628 5630 5631 5636 5637 5635 5628 5629 5633 5631 5628 5632 5633 5636 5639 5639 5642 5645
5562 5565 5564 5571 5574 5569 5564 5560 5563 5563 5556 5560 5594 5597 5618 5644 5642 5632 5636 5633 5632 5633 5634 5637 5638 5635 5626 5626 5632 5629 5628 5624 5618 5620 5626 5633 5633 5632 5632 5635 5637 5639 5641 5642
5554 5557 5560 5555 5550 5551 5550 5551 5545 5547 5538 5567 5557 5581 5618 5636 5636 5631 5629 5628 5628 5629 5630 5628 5629 5629 5623 5616 5613 5618 5617 5615 5614 5615 5617 5619 5633 5637 5634 5633 5634 5636 5637 5640
5532 5545 5555 5558 5551 5554 5548 5551 5554 5550 5566 5578 5556 5575 5615 5632 5630 5626 5624 5620 5621 5623 5625 5625 5623 5620 5620 5613 5607 5604 5607 5601 5604 5609 5613 5616 5619 5626 5637 5634 5634 5635 5634 5636
5526 5541 5543 5547 5549 5547 5549 5538 5554 5544 5556 5544 5585 5599 5618 5631 5627 5622 5619 5615 5616 5615 5614 5615 5616 5617 5618 5610 5603 5600 5599 5605 5603 5604 5604 5611 5615 5622 5630 5628 5628 5631 5630 5629
5475 5497 5528 5531 5524 5530 5534 5542 5518 5522 5528 5543 5583 5592 5597 5610 5618 5616 5611 5608 5606 5608 5607 5605 5608 5607 5608 5610 5598 5594 5594 5597 5606 5602 5601 5603 5609 5615 5619 5620 5623 5623 5623 5621
5420 5446 5503 5498 5507 5517 5508 5518 5528 5534 5538 5548 5563 5583 5603 5600 5608 5607 5606 5604 5602 5602 5602 5603 5601 5598 5598 5599 5605 5595 5593 5592 5596 5602 5597 5594 5599 5600 5610 5612 5614 5616 5616 5615
5383 5378 5425 5482 5506 5507 5508 5510 5514 5512 5529 5538 5540 5558 5587 5590 5593 5598 5596 5595 5593 5594 5596 5596 5597 5598 5599 5595 5591 5590 5589 5591 5592 5594 5595 5593 5588 5587 5596 5606 5611 5609 5609 5612
5360 5358 5365 5441 5472 5481 5471 5484 5498 5506 5516 5516 5526 5552 5580 5573 5570 5575 5582 5582 5579 5582 5589 5593 5593 5592 5593 5596 5597 5598 5598 5595 5588 5586 5584 5587 5581 5577 5580 5592 5599 5601 5602 5605
5332 5331 5330 5343 5394 5397 5381 5395 5403 5405 5427 5491 5513 5544 5554 5563 5558 5562 5565 5568 5569 5573 5578 5581 5585 5586 5585 5587 5588 5589 5589 5586 5582 5583 5580 5580 5583 5578 5574 5578 5587 5592 5598 5598
5313 5299 5320 5332 5340 5359 5373 5378 5394 5379 5392 5395 5481 5508 5534 5546 5552 5557 5557 5557 5557 5561 5567 5570 5572 5573 5574 5574 5576 5579 5581 5581 5578 5573 5573 5575 5576 5575 5572 5569 5579 5587 5588 5591
5303 5290 5301 5300 5322 5330 5345 5365 5375 5394 5402 5397 5427 5451 5507 5537 5547 5548 5541 5540 5545 5550 5556 5561 5562 5564 5564 5563 5564 5568 5571 5574 5571 5569 5565 5564 5569 5569 5570 5564 5571 5577 5579 5582
5293 5291 5292 5288 5319 5314 5315 5349 5376 5390 5401 5402 5408 5447 5476 5504 5514 5522 5529 5534 5538 5542 5544 5546 5550 5555 5555 5553 5551 5555 5559 5561 5562 5561 5562 5561 5564 5568 5566 5560 5563 5565 5571 5571
5295 5296 5300 5293 5304 5290 5341 5359 5369 5376 5409 5420 5427 5448 5463 5478 5499 5514 5523 5526 5530 5533 5536 5535 5537 5540 5542 5543 5544 5543 5546 5550 5547 5549 5553 5554 5554 5559 5558 5556 5554 5556 5557 5562
5313 5296 5291 5292 5302 5329 5351 5354 5351 5352 5374 5411 5427 5441 5462 5477 5484 5500 5513 5515 5522 5522 5515 5515 5518 5520 5525 5528 5531 5532 5533 5534 5536 5536 5535 5537 5540 5546 5548 5548 5550 5551 5548 5550
5294 5287 5287 5299 5296 5307 5351 5330 5324 5357 5352 5389 5419 5436 5450 5460 5474 5493 5508 5502 5499 5496 5496 5500 5503 5506 5509 5512 5518 5519 5518 5518 5517 5518 5519 5520 5522 5527 5530 5533 5534 5536 5540 5540
5291 5295 5290 5301 5302 5321 5309 5292 5311 5321 5340 5335 5394 5431 5445 5460 5476 5475 5465 5472 5472 5472 5474 5482 5485 5485 5488 5495 5499 5499 5497 5496 5498 5500 5502 5506 5507 5510 5512 5513 5516 5520 5523 5525
5248 5239 5271 5275 5277 5300 5296 5288 5277 5314 5319 5319 5334 5374 5417 5456 5450 5443 5447 5449 5449 5452 5460 5465 5465 5463 5468 5478 5484 5483 5482 5480 5483 5486 5486 5490 5493 5495 5497 5499 5501 5502 5504 5505
5228 5211 5215 5217 5249 5256 5252 5259 5279 5289 5305 5329 5338 5376 5428 5439 5433 5429 5430 5428 5432 5436 5444 5446 5447 5448 5452 5459 5466 5467 5466 5468 5470 5471 5472 5474 5478 5481 5486 5491 5492 5496 5495 5495
5210 5212 5208 5211 5244 5238 5250 5269 5305 5347 5336 5347 5371 5403 5414 5414 5413 5410 5411 5415 5412 5421 5425 5426 5428 5430 5433 5437 5440 5444 5449 5453 5455 5454 5454 5454 5455 5459 5464 5467 5473 5476 5475 5476
5191 5199 5202 5218 5230 5242 5265 5275 5304 5342 5353 5361 5380 5388 5393 5397 5396 5394 5393 5390 5395 5398 5401 5405 5407 5409 5412 5414 5417 5421 5428 5434 5438 5437 5437 5438 5440 5441 5442 5442 5446 5452 5449 5454
5187 5188 5197 5207 5212 5223 5238 5259 5295 5323 5336 5348 5360 5365 5365 5373 5372 5367 5366 5369 5372 5374 5377 5379 5382 5386 5389 5392 5396 5399 5403 5411 5416 5418 5419 5421 5425 5427 5432 5431 5429 5430 5433 5437